Weather History for Beckley, WV

Change the Weather History Date:

Wednesday, April 30, 2014

  Actual Average Record
Temperature  
Mean Temperature 65 °F 56 °F  
Max Temperature 76 °F 67 °F 86 °F (1899)
Min Temperature 53 °F 45 °F 28 °F (2008)
Degree Days  
Heating Degree Days 0 9  
Month to date heating degree days 300 395  
Since 1 July heating degree days 5326 5109  
Cooling Degree Days 0 0  
Month to date cooling degree days 5 9  
Year to date cooling degree days 5 10  
Growing Degree Days 14 (Base 50)    
Moisture  
Dew Point 53 °F    
Average Humidity 67    
Maximum Humidity 93    
Minimum Humidity 41    
Precipitation  
Precipitation 0.05 in 0.12 in 1.22 in (1909)
Month to date precipitation 2.68 3.36  
Year to date precipitation 10.25 12.50  
Snow  
Snow 0.00 in - - ()
Month to date snowfall 0.6  
Since 1 September snowfall 76.3  
Snow Depth 0.00 in    
Sea Level Pressure  
Sea Level Pressure 29.86 in    
Wind  
Wind Speed 12 mph (South)    
Max Wind Speed 22 mph    
Max Gust Speed 33 mph    
Visibility 10 miles    
Events Rain    
T = Trace of Precipitation, MM = Missing Value Source: NWS Daily Summary

Daily Weather History Graph

Daily Weather History Graph

Search for Another Location

Airport:

Trip Planner

Search our weather history database for the weather conditions in past years. The results will help you decide how hot, cold, wet, or windy it might be!

Date:

Astronomy

Apr. 30, 2014 Rise Set
Actual Time 6:29 AM EDT 8:14 PM EDT
Civil Twilight 6:01 AM EDT 8:42 PM EDT
Nautical Twilight 5:27 AM EDT 9:16 PM EDT
Astronomical Twilight 4:51 AM EDT 9:52 PM EDT
Moon 7:30 AM EDT (4/30) 9:50 PM EDT (4/30)
Length of Visible Light 14h 40m
Length of Day
13h 44m
New Moon, 2% of the Moon is Illuminated
Apr 30
New Moon
May 6
First Quarter
May 14
Full
May 21
Last Quarter
May 28
New

Hourly Weather History & Observations

Time (EDT) Temp. Dew Point Humidity Pressure Visibility Wind Dir Wind Speed Gust Speed Precip Events Conditions
1:51 AM 53.1 °F 50.0 °F 89% 29.94 in 10.0 mi SE 13.8 mph 25.3 mph N/A   Overcast
2:51 AM 54.0 °F 50.0 °F 86% 29.90 in 10.0 mi SE 11.5 mph 20.7 mph N/A   Overcast
3:51 AM 54.0 °F 51.1 °F 90% 29.90 in 10.0 mi SSE 12.7 mph - N/A   Overcast
4:51 AM 55.4 °F 51.8 °F 88% 29.92 in 10.0 mi SSE 9.2 mph 16.1 mph N/A   Overcast
5:51 AM 55.9 °F 52.0 °F 87% 29.88 in 10.0 mi SE 17.3 mph 23.0 mph N/A   Mostly Cloudy
6:51 AM 55.9 °F 53.1 °F 90% 29.89 in 10.0 mi SE 15.0 mph - 0.00 in Rain Light Rain
7:51 AM 55.9 °F 53.1 °F 90% 29.88 in 10.0 mi SE 15.0 mph 24.2 mph 0.00 in   Overcast
8:51 AM 57.0 °F 54.0 °F 89% 29.86 in 10.0 mi SE 12.7 mph 21.9 mph 0.00 in Rain Light Rain
9:51 AM 59.0 °F 55.0 °F 87% 29.86 in 10.0 mi SE 15.0 mph 25.3 mph 0.00 in   Overcast
10:28 AM 62.1 °F 55.0 °F 78% 29.90 in 10.0 mi South 16.1 mph 25.3 mph N/A   Scattered Clouds
10:51 AM 62.6 °F 55.4 °F 77% 29.90 in 10.0 mi SE 15.0 mph 27.6 mph N/A   Scattered Clouds
11:51 AM 64.0 °F 55.9 °F 75% 29.84 in 10.0 mi SSE 15.0 mph 21.9 mph N/A   Partly Cloudy
12:51 PM 68.0 °F 57.0 °F 68% 29.83 in 10.0 mi SSE 11.5 mph - N/A   Clear
1:51 PM 71.1 °F 55.9 °F 59% 29.78 in 10.0 mi SSE 15.0 mph 19.6 mph N/A   Clear
2:51 PM 71.1 °F 55.0 °F 57% 29.76 in 10.0 mi SSE 9.2 mph - N/A   Clear
3:51 PM 72.0 °F 54.0 °F 53% 29.76 in 10.0 mi South 11.5 mph 18.4 mph N/A   Partly Cloudy
4:51 PM 75.0 °F 55.0 °F 50% 29.73 in 10.0 mi South 10.4 mph - N/A   Scattered Clouds
5:51 PM 75.0 °F 50.0 °F 41% 29.73 in 10.0 mi SW 15.0 mph 20.7 mph N/A   Overcast
6:46 PM 66.2 °F 57.2 °F 73% 29.84 in 10.0 mi North - - N/A   Overcast
6:51 PM 66.2 °F 57.2 °F 73% 29.84 in 10.0 mi WNW 15.0 mph - N/A   Overcast
7:17 PM 61.0 °F 55.9 °F 83% 29.85 in 10.0 mi NW 11.5 mph - N/A   Overcast
7:51 PM 59.0 °F 53.1 °F 81% 29.84 in 10.0 mi WNW 9.2 mph - N/A   Overcast
7:58 PM 57.9 °F 51.1 °F 78% 29.89 in 10.0 mi West 15.0 mph 20.7 mph N/A   Overcast
8:51 PM 55.0 °F 51.1 °F 86% 29.89 in 10.0 mi WNW 5.8 mph - 0.03 in Rain Light Rain
9:18 PM 55.0 °F 51.1 °F 86% 29.93 in 10.0 mi NW 5.8 mph - 0.00 in Rain Light Rain
9:51 PM 54.0 °F 50.0 °F 86% 29.91 in 10.0 mi WSW 5.8 mph - 0.00 in Rain Light Rain
10:51 PM 53.1 °F 50.0 °F 89% 29.91 in 10.0 mi SW 5.8 mph - 0.01 in   Overcast
11:51 PM 53.1 °F 50.0 °F 89% 29.89 in 10.0 mi SSW 4.6 mph - 0.00 in Rain Light Rain